Year,Month,Day,Hour,Minute,Value (Times are PST for temperature in C)
2015,12,04,09,43,8.10
2015,12,04,09,44,8.20
2015,12,04,09,45,8.30
2015,12,04,09,46,8.30
2015,12,04,09,47,8.40
2015,12,04,09,48,8.40
2015,12,04,09,49,8.50
2015,12,04,09,50,8.50
2015,12,04,09,51,8.60
2015,12,04,09,52,8.60
2015,12,04,09,53,8.70
2015,12,04,09,54,8.70
2015,12,04,09,55,8.80
2015,12,04,09,56,8.80
2015,12,04,09,57,8.90
2015,12,04,09,58,9.00
2015,12,04,09,59,9.10
2015,12,04,10,00,9.20
2015,12,04,10,01,9.20
2015,12,04,10,02,9.20
2015,12,04,10,03,9.30
2015,12,04,10,04,9.30
2015,12,04,10,05,9.30
2015,12,04,10,06,9.30
2015,12,04,10,07,9.30
2015,12,04,10,08,9.30
2015,12,04,10,09,9.20
2015,12,04,10,10,9.20
2015,12,04,10,11,9.10
2015,12,04,10,12,9.10
2015,12,04,10,13,9.10
2015,12,04,10,14,9.00
2015,12,04,10,15,9.00
2015,12,04,10,16,8.90
2015,12,04,10,17,8.90
2015,12,04,10,18,8.90
2015,12,04,10,19,8.90
2015,12,04,10,20,8.80
2015,12,04,10,21,8.80
2015,12,04,10,22,8.80
2015,12,04,10,23,8.80
2015,12,04,10,24,8.70
2015,12,04,10,25,8.70
2015,12,04,10,26,8.70
2015,12,04,10,27,8.60
2015,12,04,10,28,8.60
2015,12,04,10,29,8.50
2015,12,04,10,30,8.50
2015,12,04,10,31,8.40
2015,12,04,10,32,8.40
2015,12,04,10,33,8.40
2015,12,04,10,34,8.40
2015,12,04,10,35,8.30
2015,12,04,10,36,8.30
2015,12,04,10,37,8.30
2015,12,04,10,38,8.20
2015,12,04,10,39,8.20
2015,12,04,10,40,8.20
2015,12,04,10,41,8.20
2015,12,04,10,42,8.20
2015,12,04,10,43,8.10
2015,12,04,10,44,8.10
2015,12,04,10,45,8.10
2015,12,04,10,46,8.10
2015,12,04,10,47,8.00
2015,12,04,10,48,8.00
2015,12,04,10,49,8.00
2015,12,04,10,50,8.00
2015,12,04,10,51,8.00
2015,12,04,10,52,8.00
2015,12,04,10,53,8.00
2015,12,04,10,54,8.00
2015,12,04,10,55,8.00
2015,12,04,10,56,8.00
2015,12,04,10,57,8.00
2015,12,04,10,58,8.00
2015,12,04,10,59,8.00
2015,12,04,11,00,8.00
2015,12,04,11,01,8.10
2015,12,04,11,02,8.10
2015,12,04,11,03,8.10
2015,12,04,11,04,8.10
2015,12,04,11,05,8.10
2015,12,04,11,06,8.10
2015,12,04,11,07,8.20
2015,12,04,11,08,8.20
2015,12,04,11,09,8.30
2015,12,04,11,10,8.30
2015,12,04,11,11,8.30
2015,12,04,11,12,8.40
2015,12,04,11,13,8.40
2015,12,04,11,14,8.40
2015,12,04,11,15,8.50
2015,12,04,11,16,8.50
2015,12,04,11,17,8.60
2015,12,04,11,18,8.60
2015,12,04,11,19,8.60
2015,12,04,11,20,8.70
2015,12,04,11,21,8.70
2015,12,04,11,22,8.70
2015,12,04,11,23,8.70
2015,12,04,11,24,8.70
2015,12,04,11,25,8.70
2015,12,04,11,26,8.70
2015,12,04,11,27,8.70
2015,12,04,11,28,8.80
2015,12,04,11,29,8.80
2015,12,04,11,30,8.80
2015,12,04,11,31,8.80
2015,12,04,11,32,8.80
2015,12,04,11,33,8.90
2015,12,04,11,34,8.90
2015,12,04,11,35,9.00
2015,12,04,11,36,9.10
2015,12,04,11,37,9.20
2015,12,04,11,38,9.40
2015,12,04,11,39,9.50
2015,12,04,11,40,9.60
2015,12,04,11,41,9.70
2015,12,04,11,42,9.80
2015,12,04,11,43,9.80
2015,12,04,11,44,9.90
2015,12,04,11,45,10.00
2015,12,04,11,46,10.00
2015,12,04,11,47,10.00
2015,12,04,11,48,10.00
2015,12,04,11,49,10.00
2015,12,04,11,50,10.00
2015,12,04,11,51,10.00
2015,12,04,11,52,10.00
2015,12,04,11,53,10.00
2015,12,04,11,54,10.00
2015,12,04,11,55,10.00
2015,12,04,11,56,9.90
2015,12,04,11,57,9.90
2015,12,04,11,58,9.90
2015,12,04,11,59,9.90
2015,12,04,12,00,9.90
2015,12,04,12,01,9.90
2015,12,04,12,02,10.00
2015,12,04,12,03,10.00
2015,12,04,12,04,10.10
2015,12,04,12,05,10.10
2015,12,04,12,06,10.20
2015,12,04,12,07,10.20
2015,12,04,12,08,10.20
2015,12,04,12,09,10.20
2015,12,04,12,10,10.20
2015,12,04,12,11,10.20
2015,12,04,12,12,10.20
2015,12,04,12,13,10.20
2015,12,04,12,14,10.20
2015,12,04,12,15,10.20
2015,12,04,12,16,10.20
2015,12,04,12,17,10.30
2015,12,04,12,18,10.30
2015,12,04,12,19,10.40
2015,12,04,12,20,10.40
2015,12,04,12,21,10.50
2015,12,04,12,22,10.60
2015,12,04,12,23,10.60
2015,12,04,12,24,10.70
2015,12,04,12,25,10.70
2015,12,04,12,26,10.70
2015,12,04,12,27,10.70
2015,12,04,12,28,10.70
2015,12,04,12,29,10.70
2015,12,04,12,30,10.80
2015,12,04,12,31,10.80
2015,12,04,12,32,10.80
2015,12,04,12,33,10.80
2015,12,04,12,34,10.80
2015,12,04,12,35,10.80
2015,12,04,12,36,10.80
2015,12,04,12,37,10.80
2015,12,04,12,38,10.80
2015,12,04,12,39,10.80
2015,12,04,12,40,10.80
2015,12,04,12,41,10.80
2015,12,04,12,42,10.80
2015,12,04,12,43,10.80
2015,12,04,12,44,10.80
2015,12,04,12,45,10.70
2015,12,04,12,46,10.70
2015,12,04,12,47,10.60
2015,12,04,12,48,10.60
2015,12,04,12,49,10.60
2015,12,04,12,50,10.60
2015,12,04,12,51,10.50
2015,12,04,12,52,10.50
2015,12,04,12,53,10.40
2015,12,04,12,54,10.40
2015,12,04,12,55,10.40
2015,12,04,12,56,10.30
2015,12,04,12,57,10.30
2015,12,04,12,58,10.30
2015,12,04,12,59,10.20
2015,12,04,13,00,10.30
2015,12,04,13,01,10.30
2015,12,04,13,02,10.30
2015,12,04,13,03,10.20
2015,12,04,13,04,10.20
2015,12,04,13,05,10.10
2015,12,04,13,06,10.00
2015,12,04,13,07,10.00
2015,12,04,13,08,9.90
2015,12,04,13,09,9.80
2015,12,04,13,10,9.80
2015,12,04,13,11,9.80
2015,12,04,13,12,9.80
2015,12,04,13,13,9.70
2015,12,04,13,14,9.70
2015,12,04,13,15,9.70
2015,12,04,13,16,9.70
2015,12,04,13,17,9.70
2015,12,04,13,18,9.70
2015,12,04,13,19,9.70
2015,12,04,13,20,9.60
2015,12,04,13,21,9.60
2015,12,04,13,22,9.60
2015,12,04,13,23,9.60
2015,12,04,13,24,9.60
2015,12,04,13,25,9.60
2015,12,04,13,26,9.70
2015,12,04,13,27,9.70
2015,12,04,13,28,9.70
2015,12,04,13,29,9.80
2015,12,04,13,30,9.80
2015,12,04,13,31,9.90
2015,12,04,13,32,9.90
2015,12,04,13,33,9.90
2015,12,04,13,34,9.90
2015,12,04,13,35,9.90
2015,12,04,13,36,9.90
2015,12,04,13,37,9.90
2015,12,04,13,38,9.90
2015,12,04,13,39,9.90
2015,12,04,13,40,9.90
2015,12,04,13,41,9.90
2015,12,04,13,42,10.00
2015,12,04,13,43,10.00
2015,12,04,13,44,10.10
2015,12,04,13,45,10.10
2015,12,04,13,46,10.10
2015,12,04,13,47,10.10
2015,12,04,13,48,10.20
2015,12,04,13,49,10.20
2015,12,04,13,50,10.10
2015,12,04,13,51,10.10
2015,12,04,13,52,10.10
2015,12,04,13,53,10.10
2015,12,04,13,54,10.10
2015,12,04,13,55,10.10
2015,12,04,13,56,10.20
2015,12,04,13,57,10.20
2015,12,04,13,58,10.20
2015,12,04,13,59,10.20
2015,12,04,14,00,10.20
2015,12,04,14,01,10.10
2015,12,04,14,02,10.10
2015,12,04,14,03,10.10
2015,12,04,14,04,10.10
2015,12,04,14,05,10.10
2015,12,04,14,06,10.10
2015,12,04,14,07,10.10
2015,12,04,14,08,10.00
2015,12,04,14,09,10.00
2015,12,04,14,10,10.00
2015,12,04,14,11,10.00
2015,12,04,14,12,9.90
2015,12,04,14,13,9.90
2015,12,04,14,14,9.90
2015,12,04,14,15,9.80
2015,12,04,14,16,9.80
2015,12,04,14,17,9.80
2015,12,04,14,18,9.80
2015,12,04,14,19,9.80
2015,12,04,14,20,9.80
2015,12,04,14,21,9.80
2015,12,04,14,22,9.70
2015,12,04,14,23,9.70
2015,12,04,14,24,9.70
2015,12,04,14,25,9.70
2015,12,04,14,26,9.70
2015,12,04,14,27,9.70
2015,12,04,14,28,9.60
2015,12,04,14,29,9.60
2015,12,04,14,30,9.60
2015,12,04,14,31,9.60
2015,12,04,14,32,9.50
2015,12,04,14,33,9.50
2015,12,04,14,34,9.50
2015,12,04,14,35,9.50
2015,12,04,14,36,9.50
2015,12,04,14,37,9.40
2015,12,04,14,38,9.40
2015,12,04,14,39,9.40
2015,12,04,14,40,9.40
2015,12,04,14,41,9.40
2015,12,04,14,42,9.50
2015,12,04,14,43,9.50
2015,12,04,14,44,9.50
2015,12,04,14,45,9.50
2015,12,04,14,46,9.50
2015,12,04,14,47,9.60
2015,12,04,14,48,9.60
2015,12,04,14,49,9.60
2015,12,04,14,50,9.60
2015,12,04,14,51,9.60
2015,12,04,14,52,9.70
2015,12,04,14,53,9.70
2015,12,04,14,54,9.70
2015,12,04,14,55,9.70
2015,12,04,14,56,9.70
2015,12,04,14,57,9.70
2015,12,04,14,58,9.70
2015,12,04,14,59,9.70
2015,12,04,15,00,9.70
2015,12,04,15,01,9.70
2015,12,04,15,02,9.70
2015,12,04,15,03,9.70
2015,12,04,15,04,9.60
2015,12,04,15,05,9.60
2015,12,04,15,06,9.60
2015,12,04,15,07,9.60
2015,12,04,15,08,9.60
2015,12,04,15,09,9.60
2015,12,04,15,10,9.60
2015,12,04,15,11,9.60
2015,12,04,15,12,9.60
2015,12,04,15,13,9.50
2015,12,04,15,14,9.50
2015,12,04,15,15,9.50
2015,12,04,15,16,9.50
2015,12,04,15,17,9.40
2015,12,04,15,18,9.40
2015,12,04,15,19,9.40
2015,12,04,15,20,9.40
2015,12,04,15,21,9.40
2015,12,04,15,22,9.40
2015,12,04,15,23,9.40
2015,12,04,15,24,9.40
2015,12,04,15,25,9.30
2015,12,04,15,26,9.30
2015,12,04,15,27,9.30
2015,12,04,15,28,9.30
2015,12,04,15,29,9.30
2015,12,04,15,30,9.30
2015,12,04,15,31,9.30
2015,12,04,15,32,9.30
2015,12,04,15,33,9.20
2015,12,04,15,34,9.20
2015,12,04,15,35,9.20
2015,12,04,15,36,9.10
2015,12,04,15,37,9.10
2015,12,04,15,38,9.10
2015,12,04,15,39,9.00
2015,12,04,15,40,9.00
2015,12,04,15,41,8.90
2015,12,04,15,42,8.90
2015,12,04,15,43,8.90
2015,12,04,15,44,8.90
2015,12,04,15,45,8.80
2015,12,04,15,46,8.80
2015,12,04,15,47,8.80
2015,12,04,15,48,8.80
2015,12,04,15,49,8.70
2015,12,04,15,50,8.70
2015,12,04,15,51,8.70
2015,12,04,15,52,8.70
2015,12,04,15,53,8.70
2015,12,04,15,54,8.70
2015,12,04,15,55,8.70
2015,12,04,15,56,8.60
2015,12,04,15,57,8.60
2015,12,04,15,58,8.60
2015,12,04,15,59,8.70
2015,12,04,16,00,8.70
2015,12,04,16,01,8.70
2015,12,04,16,02,8.70
2015,12,04,16,03,8.70
2015,12,04,16,04,8.60
2015,12,04,16,05,8.60
2015,12,04,16,06,8.60
2015,12,04,16,07,8.60
2015,12,04,16,08,8.50
2015,12,04,16,09,8.50
2015,12,04,16,10,8.50
2015,12,04,16,11,8.40
2015,12,04,16,12,8.40
2015,12,04,16,13,8.40
2015,12,04,16,14,8.40
2015,12,04,16,15,8.30
2015,12,04,16,16,8.30
2015,12,04,16,17,8.30
2015,12,04,16,18,8.30
2015,12,04,16,19,8.30
2015,12,04,16,20,8.30
2015,12,04,16,21,8.30
2015,12,04,16,22,8.20
2015,12,04,16,23,8.20
2015,12,04,16,24,8.20
2015,12,04,16,25,8.20
2015,12,04,16,26,8.20
2015,12,04,16,27,8.20
2015,12,04,16,28,8.10
2015,12,04,16,29,8.10
2015,12,04,16,30,8.10
2015,12,04,16,31,8.10
2015,12,04,16,32,8.10
2015,12,04,16,33,8.10
2015,12,04,16,34,8.10
2015,12,04,16,35,8.10
2015,12,04,16,36,8.10
2015,12,04,16,37,8.10
2015,12,04,16,38,8.10
2015,12,04,16,39,8.10
2015,12,04,16,40,8.10
2015,12,04,16,41,8.10
2015,12,04,16,42,8.10
2015,12,04,16,43,8.10
2015,12,04,16,44,8.10
2015,12,04,16,45,8.10
2015,12,04,16,46,8.10
2015,12,04,16,47,8.20
2015,12,04,16,48,8.20
2015,12,04,16,49,8.20
2015,12,04,16,50,8.20
2015,12,04,16,51,8.20
2015,12,04,16,52,8.20
2015,12,04,16,53,8.20
2015,12,04,16,54,8.20
2015,12,04,16,55,8.20
2015,12,04,16,56,8.20
2015,12,04,16,57,8.20
2015,12,04,16,58,8.10
2015,12,04,16,59,8.10
2015,12,04,17,00,8.10
2015,12,04,17,01,8.10
2015,12,04,17,02,8.10
2015,12,04,17,03,8.10
2015,12,04,17,04,8.10
2015,12,04,17,05,8.10
2015,12,04,17,06,8.20
2015,12,04,17,07,8.20
2015,12,04,17,08,8.20
2015,12,04,17,09,8.20
2015,12,04,17,10,8.20
2015,12,04,17,11,8.20
2015,12,04,17,12,8.30
2015,12,04,17,13,8.30
2015,12,04,17,14,8.30
2015,12,04,17,15,8.30
2015,12,04,17,16,8.30
2015,12,04,17,17,8.30
2015,12,04,17,18,8.30
2015,12,04,17,19,8.30
2015,12,04,17,20,8.30
2015,12,04,17,21,8.30
2015,12,04,17,22,8.30
2015,12,04,17,23,8.30
2015,12,04,17,24,8.30
2015,12,04,17,25,8.30
2015,12,04,17,26,8.30
2015,12,04,17,27,8.30
2015,12,04,17,28,8.30
2015,12,04,17,29,8.30
2015,12,04,17,30,8.30
2015,12,04,17,31,8.30
2015,12,04,17,32,8.30
2015,12,04,17,33,8.30
2015,12,04,17,34,8.20
2015,12,04,17,35,8.20
2015,12,04,17,36,8.20
2015,12,04,17,37,8.20
2015,12,04,17,38,8.10
2015,12,04,17,39,8.10
2015,12,04,17,40,8.00
2015,12,04,17,41,8.00
2015,12,04,17,42,7.90
2015,12,04,17,43,7.90
2015,12,04,17,44,7.80
2015,12,04,17,45,7.80
2015,12,04,17,46,7.80
2015,12,04,17,47,7.80
2015,12,04,17,48,7.70
2015,12,04,17,49,7.70
2015,12,04,17,50,7.70
2015,12,04,17,51,7.70
2015,12,04,17,52,7.70
2015,12,04,17,53,7.70
2015,12,04,17,54,7.70
2015,12,04,17,55,7.70
2015,12,04,17,56,7.70
2015,12,04,17,57,7.70
2015,12,04,17,58,7.70
